TimeEST,TemperatureF,Dew PointF,Humidity,Sea Level PressureIn,VisibilityMPH,Wind Direction,Wind SpeedMPH,Gust SpeedMPH,PrecipitationIn,Events,Conditions,WindDirDegrees,DateUTC
12:15 AM,25.2,15.4,67,30.22,10.0,Calm,Calm,-,N/A,,Scattered Clouds,0,2013-11-28 05:15:00
12:35 AM,24.4,15.8,70,30.22,10.0,Calm,Calm,-,N/A,,Mostly Cloudy,0,2013-11-28 05:35:00
12:55 AM,24.8,16.3,70,30.21,10.0,Calm,Calm,-,N/A,,Overcast,0,2013-11-28 05:55:00
1:15 AM,25.2,16.7,70,30.22,10.0,Calm,Calm,-,N/A,,Overcast,0,2013-11-28 06:15:00
1:35 AM,25.2,17.4,72,30.22,10.0,Calm,Calm,-,N/A,,Mostly Cloudy,0,2013-11-28 06:35:00
1:55 AM,25.5,18.1,74,30.22,10.0,Calm,Calm,-,N/A,,Overcast,0,2013-11-28 06:55:00
2:15 AM,25.7,19.0,76,30.23,10.0,WSW,3.5,-,N/A,,Overcast,240,2013-11-28 07:15:00
2:35 AM,26.2,19.4,75,30.23,10.0,WSW,3.5,-,N/A,,Overcast,250,2013-11-28 07:35:00
2:55 AM,26.1,20.1,78,30.23,5.0,WSW,4.6,-,N/A,Snow,Light Snow,250,2013-11-28 07:55:00
3:15 AM,25.7,20.3,80,30.23,5.0,West,3.5,-,N/A,Snow,Light Snow,260,2013-11-28 08:15:00
3:35 AM,25.7,20.8,82,30.23,5.0,Calm,Calm,-,N/A,Snow,Light Snow,0,2013-11-28 08:35:00
3:55 AM,25.5,21.7,86,30.23,2.5,Calm,Calm,-,N/A,Snow,Light Snow,0,2013-11-28 08:55:00
4:15 AM,25.5,21.9,86,30.23,10.0,SSW,4.6,-,N/A,,Overcast,200,2013-11-28 09:15:00
4:35 AM,25.7,22.1,86,30.23,10.0,SSW,6.9,-,N/A,,Overcast,200,2013-11-28 09:35:00
4:54 AM,25.7,21.7,85,30.23,10.0,SW,6.9,-,N/A,,Overcast,220,2013-11-28 09:54:00
5:15 AM,25.2,18.9,77,30.23,10.0,SW,9.2,-,N/A,,Overcast,220,2013-11-28 10:15:00
5:35 AM,25.2,18.5,76,30.24,10.0,SW,5.8,-,N/A,,Overcast,220,2013-11-28 10:35:00
5:54 AM,25.2,16.7,70,30.24,10.0,SW,5.8,-,N/A,,Overcast,220,2013-11-28 10:54:00
6:15 AM,25.2,15.4,67,30.24,10.0,SW,6.9,-,N/A,,Overcast,220,2013-11-28 11:15:00
6:35 AM,25.0,14.5,65,30.24,10.0,SSW,8.1,-,N/A,,Overcast,210,2013-11-28 11:35:00
6:54 AM,24.8,14.5,65,30.25,10.0,SW,6.9,-,N/A,,Overcast,220,2013-11-28 11:54:00
7:15 AM,24.8,14.9,66,30.26,10.0,SSW,9.2,-,N/A,,Overcast,210,2013-11-28 12:15:00
7:35 AM,24.4,14.7,67,30.26,10.0,SSW,9.2,-,N/A,,Overcast,210,2013-11-28 12:35:00
7:54 AM,24.3,14.9,68,30.27,10.0,SSW,9.2,-,N/A,,Overcast,210,2013-11-28 12:54:00
8:15 AM,24.3,14.7,67,30.26,10.0,SSW,9.2,-,N/A,,Overcast,210,2013-11-28 13:15:00
8:34 AM,24.4,14.5,66,30.27,10.0,SSW,8.1,-,N/A,,Overcast,200,2013-11-28 13:34:00
8:55 AM,24.6,14.9,67,30.27,10.0,South,6.9,-,N/A,,Overcast,190,2013-11-28 13:55:00
9:15 AM,24.8,14.9,66,30.27,10.0,SSW,6.9,-,N/A,,Overcast,200,2013-11-28 14:15:00
9:34 AM,24.8,14.9,66,30.27,10.0,SSW,8.1,-,N/A,,Overcast,200,2013-11-28 14:34:00
9:55 AM,25.3,14.9,65,30.27,10.0,SSW,9.2,-,N/A,,Overcast,200,2013-11-28 14:55:00
10:15 AM,25.9,14.9,63,30.27,10.0,SSW,11.5,-,N/A,,Overcast,200,2013-11-28 15:15:00
10:35 AM,26.2,14.5,61,30.26,10.0,SSW,10.4,-,N/A,,Overcast,200,2013-11-28 15:35:00
10:55 AM,26.4,13.8,59,30.26,10.0,SSW,11.5,-,N/A,,Overcast,200,2013-11-28 15:55:00
11:14 AM,26.6,14.5,60,30.25,10.0,SSW,12.7,-,N/A,,Overcast,210,2013-11-28 16:14:00
11:35 AM,26.6,14.5,60,30.25,10.0,SSW,15.0,20.7,N/A,,Overcast,210,2013-11-28 16:35:00
11:55 AM,26.8,14.4,60,30.24,10.0,SSW,11.5,-,N/A,,Overcast,210,2013-11-28 16:55:00
12:14 PM,27.3,14.7,59,30.24,10.0,SSW,15.0,-,N/A,,Overcast,210,2013-11-28 17:14:00
12:35 PM,27.7,14.5,58,30.22,10.0,SW,12.7,16.1,N/A,,Overcast,220,2013-11-28 17:35:00
12:55 PM,27.9,14.4,57,30.22,10.0,SSW,15.0,-,N/A,,Overcast,200,2013-11-28 17:55:00
1:14 PM,28.0,14.4,57,30.22,10.0,SSW,12.7,-,N/A,,Overcast,200,2013-11-28 18:14:00
1:35 PM,28.0,14.4,57,30.21,10.0,South,10.4,-,N/A,,Overcast,190,2013-11-28 18:35:00
1:55 PM,28.4,14.7,57,30.22,10.0,SSW,10.4,-,N/A,,Overcast,200,2013-11-28 18:55:00
2:14 PM,28.6,14.2,55,30.22,10.0,SW,8.1,-,N/A,,Overcast,220,2013-11-28 19:14:00
2:35 PM,28.8,14.0,54,30.22,10.0,SSW,9.2,-,N/A,,Overcast,210,2013-11-28 19:35:00
2:55 PM,28.9,14.2,54,30.22,10.0,SW,9.2,-,N/A,,Overcast,230,2013-11-28 19:55:00
3:15 PM,28.8,14.4,55,30.23,10.0,WSW,5.8,-,N/A,,Overcast,240,2013-11-28 20:15:00
3:35 PM,28.9,14.7,55,30.24,10.0,SSW,5.8,-,N/A,,Overcast,210,2013-11-28 20:35:00
3:55 PM,28.9,14.9,56,30.25,10.0,SSW,4.6,-,N/A,,Overcast,200,2013-11-28 20:55:00
4:15 PM,29.1,15.3,56,30.25,10.0,SW,4.6,-,N/A,,Overcast,220,2013-11-28 21:15:00
4:35 PM,29.1,15.4,57,30.26,10.0,SSW,4.6,-,N/A,,Overcast,200,2013-11-28 21:35:00
4:54 PM,28.9,15.8,58,30.27,10.0,Calm,Calm,-,N/A,,Overcast,0,2013-11-28 21:54:00
5:15 PM,28.8,15.8,58,30.27,10.0,Calm,Calm,-,N/A,,Overcast,0,2013-11-28 22:15:00
5:35 PM,28.4,16.7,62,30.28,10.0,Calm,Calm,-,N/A,,Overcast,0,2013-11-28 22:35:00
5:54 PM,28.4,17.1,63,30.30,10.0,Calm,Calm,-,N/A,,Overcast,0,2013-11-28 22:54:00
6:15 PM,28.4,18.0,65,30.30,10.0,Calm,Calm,-,N/A,,Overcast,0,2013-11-28 23:15:00
6:35 PM,28.4,18.3,66,30.31,10.0,Calm,Calm,-,N/A,,Overcast,0,2013-11-28 23:35:00
6:54 PM,28.2,18.3,66,30.32,10.0,Calm,Calm,-,N/A,,Overcast,0,2013-11-28 23:54:00
7:15 PM,28.0,17.6,65,30.32,10.0,Calm,Calm,-,N/A,,Overcast,0,2013-11-29 00:15:00
7:34 PM,27.9,18.3,67,30.33,10.0,Calm,Calm,-,N/A,,Mostly Cloudy,0,2013-11-29 00:34:00
7:55 PM,26.4,16.9,67,30.34,10.0,Calm,Calm,-,N/A,,Mostly Cloudy,0,2013-11-29 00:55:00
8:15 PM,26.2,18.9,74,30.35,10.0,Calm,Calm,-,N/A,,Overcast,0,2013-11-29 01:15:00
8:34 PM,27.5,19.2,71,30.35,10.0,SSW,3.5,-,N/A,,Overcast,210,2013-11-29 01:34:00
8:55 PM,28.2,18.7,67,30.36,10.0,SW,3.5,-,N/A,,Overcast,230,2013-11-29 01:55:00
9:15 PM,28.6,18.9,67,30.36,10.0,Calm,Calm,-,N/A,,Overcast,0,2013-11-29 02:15:00
9:34 PM,29.1,18.7,65,30.36,10.0,Calm,Calm,-,N/A,,Overcast,0,2013-11-29 02:34:00
9:55 PM,29.7,19.0,65,30.37,10.0,West,3.5,-,N/A,,Overcast,260,2013-11-29 02:55:00
10:15 PM,29.8,19.4,65,30.38,10.0,West,3.5,-,N/A,,Overcast,270,2013-11-29 03:15:00
10:35 PM,30.0,20.3,67,30.38,10.0,West,3.5,-,N/A,,Overcast,280,2013-11-29 03:35:00
10:55 PM,30.0,20.7,68,30.39,10.0,West,4.6,-,N/A,,Overcast,280,2013-11-29 03:55:00
11:14 PM,30.0,20.8,69,30.39,10.0,WNW,5.8,-,N/A,,Overcast,290,2013-11-29 04:14:00
11:35 PM,30.0,21.0,69,30.40,10.0,WNW,4.6,-,N/A,,Overcast,290,2013-11-29 04:35:00
11:55 PM,30.2,21.2,69,30.41,10.0,West,5.8,-,N/A,,Overcast,280,2013-11-29 04:55:00